STARLINK-1596, 46141

Orbit data source: Space-Track

STARLINK-1596, 46141 is a payload satellite owned by SpaceX/Seattle (US) in LEO that was launched on Tue, 18 Aug 2020 UTC via an FALCON 9 launch vehicle from the Air Force Eastern Test Range (AFETR). Payload-class satellites include a variety of spacecraft equipped with specific instruments for various scientific and technological missions. These include communications satellites like Starlink; space stations such as the ISS; scientific satellites like the Hubble; Earth observation satellites from companies like Planet Labs, Umbra, and HawkEye 360; GPS; miniature CubeSats for education and research; and military/defense satellites.

Loading next visibility...
Identifier
46141, 2020-057AA
Orbit
LEO
Country
Flag of USUS
Related business
Manufacturer
SpaceX/Seattle
Mission
Partially operational Commercial Communications
Bus & Motor
STARLINK, Unknown motor
Mass
260 kg wet, ~248 kg dry
Launch date (UTC)
2020-08-18 (5 years ago)
Launch vehicle
FALCON 9
Launch site
Air Force Eastern Test Range (AFETR)
Object type
Payload
Rocket body
Debris
Shape & HBR
Box + 1 Pan, 10.1 m
Radar Cross Section
13.562 m², Large (>1 m²)

Expand to show TLE details & history
Last TLE update: 10 hours ago

TLE from 10 hours ago
0 STARLINK-1596
1 46141U 20057AA  25308.13064120  .00017644  00000-0  66364-3 0  9995
2 46141  53.0469 101.0355 0008927 166.9655 193.1576 15.27208737287971
Epoch: 2025-11-04T03:08Z
TLE epoch observation values (Epoch: 2025-11-04T03:08:07.399Z)
Latitude
0.00002°
Longitude
10.38261°
Altitude
491.013 km
Speed
7.617 km/s
True Right ascension
06h 44m 08s
True Declination
0° 00' 00"
Sunlit
Object was in full shadow at epoch
Visualization orbit readout
Latitude
Unknown
Longitude
Unknown
Altitude
Unknown
Speed
Unknown
Apparent Right ascension
Unknown
Apparent Declination
Unknown
Sunlit
N/A
Visualization observer readout
Local Sidereal Time
08:42:15
Azimuth
Unknown
Elevation
Unknown
Doppler factor
Unknown
Orbital elements
Apogee altitude
490.562 km
Perigee altitude
478.309 km
Semi-major axis
6,862.572 km
Eccentricity
0.00089
Inclination
53.0469°
RAAN
101.0355°
Arg. of periapsis
166.9655°
True anomaly
193.13434°
Mean anomaly
193.1576°
Eccentric anomaly
193.14597°
Mean motion
3.8178 °/min
Orbital period
94.3 mins
BSTAR
0.00066364
Loading maneuver chart data...
Computing Atmospheric mass density...

Documentation

Showing up to 5 results
|